Home   Weather   Saipan   Past weeks

Flag for Northern Mariana Islands Past Weather in Saipan, Northern Mariana Islands — Yesterday and Last 2 Weeks

Now
80 °F

Partly cloudy.


Feels Like: 86 °F
Forecast: 78 / 83 °F
Wind: 6 mph from East

Location: Saipan International Airport

Current Time: Sep 26, 2016 at 3:34:27 AM

Latest Report: Sep 26, 2016 at 2:54 AM


Visibility: 10 mi

Pressure: 29.89 "Hg

Humidity: 90%

Dew Point: 77 °F

Location of SaipanLocation

Past Weather in Saipan — Graph

°F

Saipan Temperature Yesterday

Maximum temperature yesterday: 90 °F (at 1:23 PM)
Minimum temperature yesterday: 77 °F (at 10:54 PM)
Average temperature yesterday: 83 °F

High & Low Weather Summary for the Past Weeks

 TemperatureHumidityPressure
High90 °F (Sep 25, 1:23 PM)100% (Sep 15, 5:03 AM)30.01 "Hg (Sep 15, 5:03 AM)
Low75 °F (Sep 15, 7:35 AM)63% (Sep 25, 1:23 PM)29.74 "Hg (Sep 22, 2:09 PM)
Average82 °F86%29.89 "Hg
* Reported Sep 11 1:54 AM — Sep 26 1:54 AM, Saipan, Weather by CustomWeather, © 2016

Note: Actual official high and low records may vary slightly from our data, if they occured in-between our weather recording intervals... More about our weather records

Advertising

Saipan Weather History for the Previous 24 Hours

Scroll right to see more
 ConditionsComfort  
Time TempWeatherWind HumidityBarometerVisibility
1:54 AM
Mon, Sep 26
80 °FPassing clouds.3 mph90%29.90 "Hg10 mi
12:54 AM80 °FPassing clouds.No wind90%29.91 "Hg10 mi
11:54 PM
Sun, Sep 25
78 °FLight rain. Passing clouds.5 mph90%29.92 "Hg10 mi
10:54 PM77 °FLight rain. Fog.5 mph90%29.93 "Hg4 mi
10:04 PM79 °FHeavy rain. Fog.9 mph89%29.90 "Hg4 mi
9:54 PM78 °FHeavy rain. Fog.22 mph93%29.95 "Hg4 mi
8:54 PM82 °FThunderstorms. Partly cloudy.10 mph82%29.92 "Hg10 mi
7:54 PM83 °FPartly cloudy.3 mph82%29.91 "Hg10 mi
6:54 PM83 °FMostly cloudy.5 mph79%29.88 "Hg10 mi
5:54 PM85 °FOvercast.7 mph75%29.86 "Hg10 mi
4:54 PM87 °FBroken clouds.9 mph69%29.85 "Hg10 mi
3:54 PM87 °FScattered clouds.10 mph69%29.84 "Hg10 mi
2:54 PM88 °FSunny.8 mph70%29.83 "Hg10 mi
1:54 PM88 °FPartly sunny.10 mph67%29.85 "Hg10 mi
1:23 PM90 °FPartly sunny.7 mph63%29.79 "Hg10 mi
12:54 PM88 °FOvercast.5 mph67%29.86 "Hg10 mi
11:54 AM86 °FBroken clouds.5 mph75%29.89 "Hg10 mi
10:54 AM89 °FMostly cloudy.6 mph65%29.92 "Hg10 mi
9:54 AM88 °FOvercast.6 mph67%29.92 "Hg10 mi
8:54 AM86 °FMore clouds than sun.No wind72%29.91 "Hg10 mi
7:54 AM84 °FScattered clouds.3 mph80%29.89 "Hg10 mi
6:54 AM81 °FScattered clouds.3 mph85%29.86 "Hg10 mi
5:54 AM80 °FPassing clouds.3 mph87%29.84 "Hg10 mi
4:54 AM80 °FPassing clouds.3 mph87%29.82 "Hg10 mi
3:54 AM78 °FPassing clouds.5 mph90%29.81 "Hg10 mi
Weather by CustomWeather, © 2016

See weather overviewHow to use our weather pages